Wind_Speed
66 69 69 66 64 65 65 66 66 62 61 69 64 61 59 57 60 58 62 67 69 75 70 71 70 69 65 60 56 51 50 46 44 44 38 37 36 33 36 33 35 38 39 39
46 56 53 58 58 59 62 65 66 64 62 61 68 68 68 67 64 59 61 66 66 67 68 70 72 69 69 65 56 54 54 52 51 44 43 44 41 40 37 39 38 38 38 40
43 40 40 46 48 54 57 60 61 62 55 55 58 72 73 70 69 66 65 63 66 66 67 68 67 67 65 65 58 55 56 55 53 53 49 47 47 39 38 40 45 42 42 45
47 30 37 43 47 45 50 51 56 55 55 57 51 67 67 71 71 70 70 66 65 65 67 67 67 68 65 63 59 54 58 59 54 53 52 52 48 47 36 39 45 48 46 47
39 31 19 30 38 40 41 39 40 52 54 52 54 61 72 65 66 67 70 69 67 65 63 68 67 64 62 62 59 56 54 54 49 51 53 44 50 44 50 49 54 54 52 52
39 40 32 31 37 38 33 42 43 42 47 56 51 51 69 64 61 62 61 65 65 62 60 64 67 64 58 55 54 56 51 49 46 39 41 44 42 40 48 53 52 56 58 52
40 45 46 36 44 35 42 42 42 49 51 55 41 49 51 51 53 52 49 52 57 62 61 59 63 65 62 56 53 51 48 47 41 42 35 38 43 44 36 44 33 35 40 40
60 52 50 49 44 40 29 37 44 45 41 33 51 51 42 32 39 47 46 46 49 46 47 52 46 57 61 59 51 47 45 42 35 32 36 40 42 33 38 27 29 31 31 33
56 51 51 44 36 43 36 40 35 45 28 34 39 47 21 31 32 44 50 54 51 50 49 49 49 50 55 55 54 48 46 48 40 29 26 33 36 37 34 30 34 40 39 39
34 45 35 22 24 37 41 37 39 40 42 42 36 35 27 20 34 35 53 57 59 52 46 45 46 46 44 51 49 48 47 44 42 41 39 35 37 37 39 39 42 45 45 46
12 24 11 14 21 31 34 34 35 41 39 45 43 39 35 31 25 32 52 60 54 62 59 54 48 44 41 47 50 48 48 47 44 45 44 42 41 42 45 45 44 43 41 44
12 26 16 7 13 10 18 27 28 33 38 40 35 28 34 42 41 40 48 58 64 57 57 54 50 44 41 51 53 53 50 48 46 46 46 46 45 46 45 44 43 40 42 42
18 24 12 8 17 16 19 23 25 27 34 39 45 28 36 42 42 44 41 45 56 66 57 53 44 46 47 52 53 53 52 51 50 49 49 46 47 47 47 45 43 44 42 38
12 18 10 15 18 17 15 19 24 23 34 33 37 35 31 39 46 45 36 38 46 58 52 49 45 50 49 49 56 51 51 52 50 49 49 43 45 47 45 44 44 41 38 34
11 13 12 10 10 13 13 8 14 18 21 30 20 25 24 33 36 40 41 43 44 50 44 47 48 49 41 37 50 54 51 50 48 46 42 46 47 45 45 45 42 37 34 32
10 8 5 6 8 10 8 9 6 12 9 8 9 9 22 21 29 32 34 30 33 51 44 53 50 47 44 38 37 45 51 49 47 44 44 47 49 47 47 42 37 33 32 31
3 0 1 2 4 7 5 12 12 9 10 10 12 12 12 25 30 7 14 25 33 44 42 47 44 43 43 43 42 41 44 45 42 44 44 44 44 45 40 34 32 31 29 31
9 6 1 3 4 4 8 10 9 10 13 6 8 2 8 7 3 5 18 33 24 33 28 39 44 42 43 42 41 45 43 41 38 42 44 44 42 38 35 33 29 28 30 29
7 5 4 2 4 4 8 4 8 12 14 14 12 6 4 6 3 8 5 5 27 27 22 20 26 43 35 40 43 42 40 39 39 39 41 42 38 37 32 30 31 28 26 26
8 9 9 4 3 10 12 10 11 18 19 15 13 8 9 5 4 9 10 17 16 16 18 21 23 33 20 52 45 42 41 42 35 33 34 37 33 31 30 30 26 25 28 29
10 7 7 8 8 17 11 13 14 14 18 19 15 15 15 10 7 6 10 14 13 15 18 12 14 21 29 23 40 43 43 39 33 30 35 34 32 31 30 26 27 29 29 26
4 5 4 11 16 22 12 11 10 13 12 14 14 17 11 9 8 4 5 8 12 11 13 9 25 13 31 30 29 35 38 33 34 39 38 33 28 27 27 28 29 28 27 27
7 7 15 15 17 17 12 8 5 6 13 15 12 11 9 8 5 10 10 7 7 7 11 17 8 17 24 17 28 28 31 30 31 26 25 26 28 29 27 24 20 23 24 21
7 9 14 14 15 12 8 3 1 2 4 4 15 14 10 9 6 9 8 13 12 9 9 6 12 10 12 17 19 17 18 18 19 19 21 22 24 25 24 25 26 23 22 22
12 10 11 12 10 8 7 7 4 7 12 7 19 17 9 5 10 10 8 9 12 13 16 18 11 14 15 17 17 16 16 18 19 20 21 23 24 26 26 25 23 22 20 19
13 11 8 8 9 7 9 7 7 6 8 15 17 12 5 9 9 4 2 6 7 11 17 20 14 14 14 17 17 18 22 21 20 21 20 20 25 25 25 26 27 26 20 21
Wind_Direction
251 247 248 247 244 242 240 240 243 243 231 237 236 238 235 231 231 226 227 231 228 234 241 245 250 255 256 252 252 251 250 251 248 244 252 249 237 250 250 243 248 251 254 261
250 249 248 246 244 243 242 238 237 238 240 236 230 234 236 230 228 228 226 226 230 230 234 237 239 244 253 255 252 254 253 250 249 252 249 248 223 222 235 244 247 255 262 266
247 243 246 242 239 243 245 244 240 243 243 245 235 229 228 233 233 228 223 225 225 227 233 235 238 243 243 250 251 251 253 252 248 246 248 254 240 249 236 246 255 257 259 265
253 238 252 250 243 239 241 245 241 236 239 239 239 239 230 229 233 233 230 226 225 225 227 233 237 239 244 243 247 243 247 249 247 246 247 252 264 233 245 251 251 253 256 261
251 245 260 249 251 248 245 237 240 245 243 238 231 240 235 232 230 231 235 233 231 231 229 231 235 237 237 240 241 244 243 249 252 250 246 247 254 249 258 250 255 258 258 258
246 236 265 280 265 241 241 234 230 235 245 246 246 240 244 240 238 232 229 234 232 233 235 230 232 232 234 237 239 241 242 241 246 246 246 254 255 248 247 247 250 255 249 252
253 250 272 272 261 236 234 233 237 238 241 242 245 244 248 245 243 242 238 238 236 230 230 230 233 231 229 230 235 239 237 233 242 239 239 245 247 246 245 249 260 261 254 255
258 260 264 263 268 247 234 242 235 249 249 257 232 242 250 244 232 233 230 227 234 238 237 238 228 229 229 230 230 233 231 231 239 232 231 239 244 253 248 241 249 255 258 258
256 247 252 261 258 238 238 245 248 243 248 248 238 244 244 237 236 223 219 210 224 225 226 228 227 225 224 224 225 227 228 230 229 234 222 238 248 254 255 250 249 255 253 262
241 243 248 230 226 227 238 239 242 242 247 250 256 237 230 227 222 226 218 211 214 219 215 218 223 221 225 220 218 218 224 223 229 224 229 232 237 243 246 240 245 252 254 260
233 209 220 188 216 228 231 244 237 235 245 249 247 229 230 223 241 228 218 207 207 218 227 232 227 236 230 219 216 215 217 217 226 225 229 230 232 235 241 244 247 249 252 257
223 219 236 243 219 233 243 234 236 234 245 252 254 235 234 229 235 220 213 211 211 204 212 222 228 225 226 214 214 214 214 215 221 224 227 230 232 234 239 242 245 247 249 256
221 211 249 249 222 248 240 232 232 231 242 239 243 239 226 233 231 236 219 220 212 206 211 218 216 217 219 210 211 213 215 218 221 225 229 228 231 235 238 241 243 245 250 257
202 214 241 207 216 243 231 238 247 250 231 243 241 247 240 242 233 235 227 215 213 201 207 207 211 213 214 207 208 212 214 217 221 224 229 230 233 235 237 239 244 248 251 256
195 203 237 236 231 257 247 292 233 246 237 242 246 245 217 221 232 235 221 211 199 194 204 210 208 214 205 206 211 206 209 213 217 222 223 227 231 234 236 238 241 246 252 255
211 230 249 260 252 259 281 274 221 214 229 217 234 251 232 238 224 240 197 215 200 191 190 198 199 214 217 205 208 210 212 215 218 221 221 224 227 231 233 236 241 245 247 250
112 30 155 306 219 236 248 250 220 232 226 188 218 220 222 213 240 228 190 173 198 191 189 199 203 205 216 222 219 208 206 209 211 215 217 222 225 230 235 237 239 240 243 250
78 86 73 271 312 309 215 257 229 201 196 168 180 222 251 294 40 166 185 196 208 195 184 203 209 217 211 213 211 209 208 206 210 215 216 220 226 229 230 232 234 236 241 242
51 35 74 110 295 153 210 292 170 160 165 155 179 178 167 276 175 217 192 175 189 194 208 216 229 217 211 211 213 207 202 202 213 213 216 221 222 224 227 229 227 235 237 243
61 15 355 68 139 66 109 108 135 150 156 164 145 132 88 61 54 169 188 186 199 216 224 244 232 220 211 214 207 205 207 212 214 210 216 217 216 220 221 224 231 238 245 251
41 37 30 22 112 87 134 142 135 134 146 141 141 147 133 97 58 93 144 176 202 212 219 225 220 203 214 210 189 210 212 215 210 208 211 210 208 214 222 230 239 249 255 261
58 21 43 54 91 100 153 162 134 143 178 178 183 162 161 141 94 117 175 154 173 185 212 151 159 189 204 181 165 193 208 213 207 209 208 207 210 220 230 238 247 256 261 275
65 78 83 99 116 130 151 181 83 104 114 143 186 192 207 201 166 163 157 145 133 145 163 176 177 143 155 197 217 212 214 213 198 195 203 213 222 232 239 250 249 271 263 245
73 88 102 122 133 137 155 153 179 173 158 146 185 192 192 185 180 193 165 161 155 169 147 157 171 171 161 164 165 167 176 190 200 211 223 233 240 246 254 257 266 244 236 244
94 111 129 133 148 173 161 121 81 72 126 100 175 161 151 148 174 163 165 158 161 173 165 206 189 195 187 182 187 192 201 209 217 224 231 240 247 246 254 251 231 227 236 238
91 119 138 163 169 156 140 130 128 116 138 137 181 190 206 162 165 160 165 178 161 195 193 184 198 199 194 194 199 209 209 210 219 231 237 240 238 241 248 250 225 230 244 245
Height
5676 5678 5687 5683 5687 5690 5694 5699 5704 5713 5723 5718 5728 5740 5745 5753 5755 5766 5773 5780 5785 5791 5804 5807 5811 5812 5819 5827 5835 5844 5852 5859 5863 5868 5872 5873 5874 5880 5885 5884 5882 5883 5884 5884
5659 5662 5665 5663 5668 5670 5673 5678 5687 5695 5697 5701 5713 5717 5725 5728 5737 5749 5757 5763 5772 5780 5787 5794 5800 5803 5806 5814 5826 5831 5838 5845 5850 5856 5862 5862 5861 5867 5871 5876 5877 5877 5877 5876
5642 5654 5646 5646 5651 5653 5657 5663 5675 5677 5683 5681 5691 5691 5703 5714 5721 5729 5737 5747 5757 5767 5774 5781 5788 5793 5802 5805 5814 5821 5825 5831 5838 5845 5851 5851 5856 5859 5864 5869 5871 5871 5869 5866
5626 5637 5633 5634 5640 5641 5642 5653 5654 5653 5657 5662 5674 5672 5688 5697 5704 5712 5722 5732 5740 5753 5762 5769 5776 5781 5786 5796 5802 5811 5814 5818 5827 5833 5838 5839 5845 5850 5855 5857 5860 5861 5860 5859
5621 5623 5620 5623 5630 5631 5638 5640 5640 5645 5646 5645 5657 5656 5670 5681 5687 5697 5708 5717 5730 5739 5751 5759 5763 5769 5775 5783 5792 5798 5804 5806 5816 5821 5826 5829 5833 5842 5846 5848 5850 5849 5848 5848
5608 5610 5612 5618 5620 5623 5627 5626 5632 5634 5638 5632 5647 5649 5653 5666 5675 5685 5693 5702 5715 5727 5736 5745 5752 5760 5765 5774 5783 5786 5793 5799 5805 5812 5817 5819 5824 5829 5834 5836 5836 5838 5835 5832
5592 5595 5600 5604 5607 5614 5615 5618 5621 5623 5623 5624 5642 5636 5642 5657 5667 5674 5686 5694 5700 5710 5717 5726 5736 5744 5753 5763 5773 5782 5787 5792 5796 5802 5809 5814 5817 5819 5823 5826 5825 5827 5823 5822
5576 5583 5589 5594 5599 5603 5605 5609 5610 5613 5614 5618 5627 5617 5636 5650 5654 5659 5669 5681 5689 5698 5706 5713 5722 5731 5741 5749 5759 5770 5777 5784 5789 5792 5798 5802 5803 5808 5810 5812 5816 5818 5819 5820
5561 5572 5580 5584 5588 5590 5597 5599 5604 5604 5607 5609 5614 5622 5631 5639 5640 5646 5653 5665 5674 5683 5692 5701 5711 5718 5727 5736 5747 5759 5768 5773 5779 5783 5784 5791 5794 5799 5802 5807 5810 5813 5813 5813
5552 5561 5572 5572 5576 5582 5586 5590 5594 5595 5599 5601 5607 5614 5624 5627 5631 5633 5638 5647 5660 5669 5676 5687 5697 5706 5715 5726 5736 5746 5755 5761 5768 5773 5777 5782 5787 5790 5794 5797 5800 5804 5805 5805
5551 5557 5565 5564 5569 5574 5580 5583 5585 5589 5591 5593 5598 5606 5614 5621 5621 5624 5630 5637 5646 5660 5669 5678 5689 5698 5708 5717 5725 5734 5741 5750 5755 5761 5767 5771 5777 5781 5785 5788 5791 5793 5794 5796
5550 5553 5559 5561 5566 5569 5573 5577 5581 5582 5587 5589 5592 5594 5602 5608 5612 5614 5620 5627 5637 5646 5658 5668 5680 5687 5695 5704 5713 5721 5731 5742 5748 5752 5756 5761 5766 5772 5775 5779 5782 5784 5786 5789
5546 5552 5558 5560 5563 5566 5568 5571 5574 5576 5578 5580 5583 5586 5593 5595 5597 5604 5611 5616 5620 5632 5646 5656 5668 5675 5683 5691 5701 5712 5722 5730 5737 5744 5747 5753 5757 5762 5766 5771 5774 5776 5780 5784
5547 5552 5557 5560 5562 5564 5566 5568 5568 5568 5569 5573 5576 5581 5588 5588 5591 5597 5604 5610 5616 5630 5640 5649 5658 5665 5673 5682 5691 5701 5710 5718 5726 5734 5740 5747 5751 5754 5759 5762 5765 5770 5774 5777
5549 5553 5556 5558 5560 5561 5562 5562 5562 5562 5566 5569 5573 5574 5581 5585 5589 5591 5596 5601 5605 5618 5632 5643 5651 5657 5665 5673 5681 5690 5699 5707 5716 5724 5733 5738 5742 5747 5751 5755 5759 5764 5768 5769
5550 5554 5556 5556 5558 5558 5560 5557 5558 5562 5568 5572 5574 5577 5582 5584 5586 5586 5586 5586 5587 5611 5619 5630 5639 5649 5658 5669 5676 5684 5692 5699 5707 5716 5723 5729 5732 5738 5742 5748 5753 5758 5759 5761
5553 5555 5557 5557 5558 5558 5559 5557 5560 5565 5567 5573 5576 5576 5578 5582 5584 5579 5582 5586 5598 5606 5610 5623 5633 5642 5650 5661 5668 5677 5684 5693 5701 5708 5713 5719 5725 5730 5736 5741 5746 5749 5752 5754
5554 5555 5556 5557 5557 5558 5558 5558 5561 5565 5568 5570 5574 5576 5579 5583 5582 5584 5589 5594 5600 5603 5611 5618 5628 5633 5635 5653 5663 5671 5679 5687 5694 5701 5707 5713 5718 5724 5730 5735 5739 5742 5744 5747
5554 5555 5557 5557 5556 5557 5557 5557 5562 5566 5570 5571 5574 5580 5582 5583 5585 5587 5588 5590 5601 5608 5614 5618 5626 5632 5639 5648 5655 5666 5676 5683 5689 5694 5700 5707 5714 5720 5725 5730 5733 5735 5738 5740
5556 5556 5556 5556 5556 5555 5556 5558 5563 5566 5571 5573 5574 5577 5582 5580 5583 5586 5592 5597 5604 5608 5612 5617 5623 5627 5634 5642 5649 5662 5669 5675 5680 5685 5694 5702 5709 5715 5721 5724 5727 5729 5731 5732
5557 5556 5556 5556 5556 5559 5560 5564 5566 5571 5577 5575 5577 5579 5583 5585 5586 5589 5594 5597 5601 5605 5611 5614 5613 5620 5628 5631 5642 5653 5662 5669 5676 5682 5690 5697 5704 5709 5714 5717 5720 5722 5724 5725
5558 5558 5558 5557 5558 5561 5564 5568 5571 5573 5575 5578 5580 5582 5586 5587 5590 5593 5596 5599 5605 5608 5612 5615 5617 5620 5627 5632 5637 5648 5658 5665 5672 5679 5686 5693 5699 5704 5707 5710 5713 5714 5716 5717
5561 5561 5560 5561 5563 5566 5568 5570 5573 5574 5569 5580 5583 5586 5589 5591 5594 5597 5601 5603 5606 5609 5614 5616 5619 5624 5630 5635 5642 5648 5655 5663 5671 5677 5684 5689 5693 5697 5700 5703 5706 5707 5708 5709
5563 5563 5565 5567 5568 5570 5572 5575 5577 5578 5579 5582 5585 5588 5591 5594 5597 5600 5604 5606 5607 5610 5615 5619 5623 5629 5632 5637 5643 5650 5656 5664 5670 5674 5679 5684 5687 5690 5694 5696 5698 5699 5701 5704
5567 5567 5568 5570 5572 5573 5576 5578 5577 5577 5578 5581 5585 5590 5594 5596 5598 5601 5603 5606 5609 5614 5618 5620 5626 5631 5635 5639 5645 5649 5654 5660 5665 5670 5673 5677 5680 5684 5684 5689 5691 5693 5696 5698
5568 5569 5571 5571 5573 5576 5578 5579 5580 5581 5583 5584 5589 5592 5594 5597 5600 5604 5606 5608 5611 5614 5617 5622 5626 5630 5635 5639 5643 5647 5651 5655 5659 5664 5668 5672 5674 5676 5678 5681 5685 5688 5691 5693